{"data":{"norad_id":51748,"epoch":"2026-09-20T03:29:51.229248Z","epoch_age_seconds":82783,"freshness":"FRESH","line1":"1 51748U 22016AL  26263.14573182  .00000340  00000+0  21201-4 0  9992","line2":"2 51748  53.1591 141.0243 0001139  90.7259 269.3874 15.34388348253266","mean_motion":15.34388348,"eccentricity":0.0001139,"inclination_deg":53.1591,"raan_deg":141.0243,"arg_perigee_deg":90.7259,"mean_anomaly_deg":269.3874,"bstar":2.1201e-5,"rev_number":25326,"period_min":93.848470752334,"perigee_km":461.95869697782,"apogee_km":463.51704827381,"semimajor_km":6840.8748726258,"source":"CELESTRAK","updated_at":"2026-09-20T09:00:39.933014Z"}}